Volver al catálogo

THORAD AGENA D DEB

ActivoLEO
NORAD 4951·DEBRIS·🇺🇸 United States

Lanzado Apr 8, 1970 desde Vandenberg Space Force Base

Loading…

Próximos Pases

TLE

Source: Space-Track
1 04951U 70025GM  26228.44021336  .00000077  00000-0  16496-3 0  9999
2 04951 100.1867 226.8286 0017480 338.1583 180.9264 13.61272317791032

Sigue THORAD AGENA D DEB en tiempo real con AllMySat

Download on the App Store